Date,TemperatureHighF,TemperatureAvgF,TemperatureLowF,DewpointHighF,DewpointAvgF,DewpointLowF,HumidityHigh,HumidityAvg,HumidityLow,PressureMaxIn,PressureMinIn,WindSpeedMaxMPH,WindSpeedAvgMPH,GustSpeedMaxMPH,PrecipitationSumIn
2013-2-1,41,34,24,26,10,-4,61,39,21,29.94,29.42,21,5,21,0.00
2013-2-2,45,32,17,31,9,1,65,40,21,29.95,29.58,17,4,17,0.00
2013-2-3,52,41,33,35,27,20,86,60,31,29.58,29.41,21,3,21,0.00
2013-2-4,52,37,24,26,19,15,77,52,25,29.69,29.54,11,2,11,0.00
2013-2-5,65,47,36,33,30,24,77,53,25,29.57,29.44,14,3,14,0.00
2013-2-6,64,45,30,36,27,20,86,56,20,29.86,29.52,11,2,11,0.00
2013-2-7,49,42,34,42,36,31,99,82,64,29.89,29.56,13,4,13,0.31
2013-2-8,57,45,40,45,39,27,99,80,51,29.59,29.36,15,5,15,0.38
2013-2-9,56,39,27,28,21,12,82,52,20,29.91,29.58,10,2,10,0.00
2013-2-10,57,41,27,38,21,14,78,46,22,30.04,29.77,13,2,13,0.01
2013-2-11,63,56,44,59,52,38,97,88,78,29.77,29.47,22,6,22,0.02
2013-2-12,64,53,43,53,35,23,87,54,22,29.64,29.47,11,2,11,0.00
2013-2-13,48,46,42,46,43,36,97,91,66,29.52,29.17,11,2,11,0.25
2013-2-14,42,38,36,36,34,31,87,83,79,29.44,29.38,3,0,3,0.00
2013-2-15,68,44,28,40,31,24,91,65,22,29.65,29.49,13,2,13,0.00
2013-2-16,46,40,30,37,32,28,95,76,59,29.53,29.38,10,2,10,0.26
2013-2-17,39,28,21,29,12,1,95,54,21,30.22,29.45,18,2,18,0.07
2013-2-18,56,34,16,25,16,9,79,52,21,29.97,29.81,16,3,16,0.04
2013-2-19,53,43,34,50,37,23,97,78,57,29.82,29.41,32,6,32,0.04
2013-2-20,55,41,31,38,18,8,97,44,19,29.70,29.51,15,3,15,0.00
2013-2-21,60,40,24,25,18,12,75,43,20,29.83,29.67,9,2,9,0.00
2013-2-22,41,36,31,34,29,20,94,79,44,29.91,29.69,9,2,9,0.24
2013-2-23,44,40,36,43,39,34,99,98,94,29.69,29.36,6,2,6,0.50
2013-2-24,68,50,39,48,38,24,99,70,20,29.59,29.34,12,2,12,0.02
2013-2-25,43,37,32,29,23,18,69,56,43,29.78,29.59,11,2,11,0.00
2013-2-26,57,44,33,57,41,23,99,88,62,29.71,29.12,17,4,17,0.94
2013-2-27,66,50,40,47,40,34,99,72,34,29.34,29.16,17,4,17,0.01
2013-2-28,53,41,33,38,31,25,96,68,35,29.41,29.25,14,2,14,0.00